Location: Unspecified
(54.1780°N, 0.0000°E)
Time: 07:05:22
(UTC+00:00)

Tiros 1 - Pass Details

Date: 20 June 2019
Orbit: 630 x 664 km, 48.4° (Epoch: 15 July)

Event Time Altitude Azimuth Distance (km) Brightness Sun altitude
Rises 05:18:34 0° 273° (W) 2,926 10.0 12.9°
Reaches altitude 10° 05:21:18 10° 258° (WSW) 2,012 9.1 13.2°
Maximum altitude 05:24:49 22° 208° (SSW) 1,393 8.5 13.7°
Drops below altitude 10° 05:28:19 10° 159° (SSE) 2,003 9.8 14.2°
Sets 05:31:03 0° 143° (SE) 2,909 10.7 14.6°
